Tracking 35334 objects as of 13-Sep-2026
HD Live streaming from Space Station
objects crossing your sky now

OBJECT E


OBJECT E is no longer on orbit


NORAD ID: 66057
Int'l Code: 2025-234E
Launch date: October 19, 2025
Source: (TBD)
Launch site: Jiuquan Satellite Launch Center, China (JSC)
Decay date: 2025-11-30
Your satellite tracking list
Your tracking list is empty




NASA's NSSDC Master Catalog

Two Line Element Set (TLE):
1 66057U 25234E   25333.64062011  .06654110  10712+0  24614-1 0  9997
2 66057  97.4383  40.2168 0009930 319.1728  40.8803 15.95698169  6393
Source of the keplerian elements: AFSPC